{"data":{"norad_id":66527,"epoch":"2026-05-25T04:57:29.248992Z","epoch_age_seconds":53127,"freshness":"FRESH","line1":"1 66527U 25265M   26145.20658853  .00021532  00000+0  78945-3 0  9999","line2":"2 66527  43.0000 205.9862 0001325 271.8004  88.2696 15.27590458 28814","mean_motion":15.27590458,"eccentricity":0.0001325,"inclination_deg":43,"raan_deg":205.9862,"arg_perigee_deg":271.8004,"mean_anomaly_deg":88.2696,"bstar":0.00078945,"rev_number":2881,"period_min":94.266103356349,"perigee_km":482.10867819555,"apogee_km":483.92688421257,"semimajor_km":6861.1547812041,"source":"CELESTRAK","updated_at":"2026-05-25T13:38:21.251520Z"}}